This is the latest recevied weather packets stored in our database for station/object N2XP-3. If no packets are shown the sender has not sent any weather packets the latest 10 day(s).
| Time | Temp. | Humidity | Pressure | Rain* | Wind** | Luminosity | Snow |
|---|---|---|---|---|---|---|---|
| 1777078084 | 12.22° C | 64% | 1008.8 hPa | 0 mm | 0 m/s | - | - |
| 1777077785 | 12.22° C | 64% | 1008.8 hPa | 0 mm | 0 m/s | - | - |
| 1777077485 | 12.78° C | 63% | 1008.5 hPa | 0 mm | 0 m/s | - | - |
| 1777077173 | 12.78° C | 62% | 1008.4 hPa | 0 mm | 0.89 m/s, 49° | - | - |
| 1777076575 | 13.33° C | 61% | 1008.1 hPa | 0 mm | 0 m/s | - | - |
| 1777076269 | 13.33° C | 60% | 1008.1 hPa | 0 mm | 0 m/s | - | - |
| 1777075970 | 13.89° C | 60% | 1008 hPa | 0 mm | 0.89 m/s, 179° | - | - |
| 1777075671 | 13.89° C | 59% | 1007.9 hPa | 0 mm | 0 m/s | - | - |
| 1777075363 | 14.44° C | 58% | 1007.7 hPa | 0 mm | 0 m/s | - | - |
| 1777075060 | 14.44° C | 57% | 1007.7 hPa | 0 mm | 0 m/s | - | - |
| 1777074759 | 15° C | 57% | 1007.6 hPa | 0 mm | 0 m/s | - | - |
| 1777074453 | 15° C | 56% | 1007.6 hPa | 0 mm | 0 m/s | - | - |
| 1777074211 | 15.56° C | 55% | 1007.6 hPa | 0 mm | 0 m/s | - | - |
| 1777074154 | 15.56° C | 55% | 1007.6 hPa | 0 mm | 0 m/s | - | - |
| 1777073854 | 15.56° C | 54% | 1007.4 hPa | 0 mm | 0 m/s | - | - |
| 1777073550 | 16.11° C | 54% | 1007.4 hPa | 0 mm | 0 m/s | - | - |
| 1777072950 | 16.67° C | 51% | 1007.6 hPa | 0 mm | 0.89 m/s, 271° | - | - |
| 1777072642 | 16.67° C | 51% | 1007.6 hPa | 0 mm | 0 m/s | - | - |
| 1777072343 | 16.67° C | 51% | 1007.6 hPa | 0 mm | 0 m/s | - | - |
| 1777072044 | 17.22° C | 50% | 1007.5 hPa | 0 mm | 0 m/s | - | - |
| 1777071738 | 17.78° C | 49% | 1007.4 hPa | 0 mm | 0 m/s | - | - |
| 1777071437 | 17.78° C | 48% | 1007.2 hPa | 0 mm | 0.45 m/s, 332° | - | - |
| 1777071138 | 18.33° C | 46% | 1007.1 hPa | 0 mm | 0.89 m/s, 224° | - | - |
| 1777070822 | 18.33° C | 45% | 1006.9 hPa | 0 mm | 0 m/s | - | - |
| 1777069622 | 18.89° C | 43% | 1006.7 hPa | 0 mm | 0 m/s | - | - |
* Rain latest hour (hover to see other rain measurements)
** Current wind speed in m/s (hover to see current wind gust speed)